M I D A S
Marine Information and Data Acquisition System
Tripno 1302 of the Zeeleeuw from 2007-07-30 08:39:05 to 2007-07-30 13:44:51
Back to CruiseResearch ActivitiesStationsMapUnderway DataData graphs

EquipmentUnitsComments
TimeDGPSUTC
LatitudeDGPSDM.mWGS84
LongitudeDGPSDM.mWGS84
SpeedMeteo Stationm/sRelative wind speed
DirectionMeteo StationdegRelative wind direction
TemperatureMeteo Stationdeg CelciusAir temperature
PressureMeteo StationPaAtmospheric pressure
HumidityMeteo Station%Relative humidity
Missing or incorrect values are displayed as -999
Metereological data collected by the RV Zeeleeuw from 2007-07-30 06:59:30 to 2007-07-30 13:56:19
Time Latitude Longitude Speed Direction Temperature Pressure Humidity
2007-07-30 07:00 51°15.943 2°53.571 13.9 323 15.1 101840 76
2007-07-30 07:01 51°16.116 2°53.409 14.2 284 15.1 101850 76
2007-07-30 07:02 51°16.29 2°53.248 13.4 277 15.1 101850 77
2007-07-30 07:03 51°16.464 2°53.089 15.1 284 15 101850 76
2007-07-30 07:04 51°16.64 2°52.938 13.5 277 15 101850 75
2007-07-30 07:05 51°16.818 2°52.784 12.8 317 15 101850 76
2007-07-30 07:06 51°16.994 2°52.673 14.5 315 15 101850 77
2007-07-30 07:07 51°17.182 2°52.59 12.4 317 15 101850 78
2007-07-30 07:08 51°17.364 2°52.516 13.3 285 15 101840 77
2007-07-30 07:09 51°17.552 2°52.526 13.2 27 14.9 101850 74
2007-07-30 07:10 51°17.74 2°52.535 12.4 284 15 101860 75
2007-07-30 07:11 51°17.926 2°52.554 12.6 285 15 101830 76
2007-07-30 07:12 51°18.09 2°52.672 7.9 284 15 101850 76
2007-07-30 07:13 51°18.223 2°52.881 7.8 279 15.1 101870 77
2007-07-30 07:14 51°18.312 2°53.152 8 283 15.1 101870 78
2007-07-30 07:15 51°18.398 2°53.43 7 281 15.1 101870 77
2007-07-30 07:16 51°18.48 2°53.704 5.7 26 15.2 101870 77
2007-07-30 07:17 51°18.563 2°53.968 8.2 245 15.3 101870 77
2007-07-30 07:18 51°18.638 2°54.245 8.2 250 15.4 101870 77
2007-07-30 07:19 51°18.706 2°54.528 7.1 286 15.4 101880 76
2007-07-30 07:20 51°18.78 2°54.809 8.6 246 15.5 101860 76
2007-07-30 07:21 51°18.853 2°55.089 6.2 284 15.5 101870 74
2007-07-30 07:22 51°18.918 2°55.374 7 285 15.5 101860 74
2007-07-30 07:23 51°18.985 2°55.659 6.4 279 15.5 101870 73
2007-07-30 07:24 51°19.051 2°55.941 7.1 279 15.6 101880 74
2007-07-30 07:25 51°19.117 2°56.224 7.5 21 15.6 101870 75
2007-07-30 07:26 51°19.187 2°56.499 5.7 280 15.5 101870 74
2007-07-30 07:27 51°19.254 2°56.775 5.8 248 15.5 101870 74
2007-07-30 07:28 51°19.318 2°57.05 6.6 278 15.4 101870 75
2007-07-30 07:29 51°19.379 2°57.323 6.2 248 15.5 101880 76
2007-07-30 07:30 51°19.444 2°57.599 5.2 285 15.6 101870 75
2007-07-30 07:31 51°19.512 2°57.872 5.4 279 15.5 101870 75
2007-07-30 07:32 51°19.578 2°58.148 9 281 15.5 101880 75
2007-07-30 07:33 51°19.644 2°58.421 7.9 285 15.4 101860 75
2007-07-30 07:34 51°19.714 2°58.692 7.5 279 15.3 101870 76
2007-07-30 07:35 51°19.769 2°58.977 4.9 21 15.3 101870 75
2007-07-30 07:36 51°19.822 2°59.255 5.3 251 15.4 101870 75
2007-07-30 07:37 51°19.88 2°59.531 4.9 250 15.4 101860 76
2007-07-30 07:38 51°19.935 2°59.802 7.5 250 15.4 101870 77
2007-07-30 07:39 51°19.992 3°0.077 8.1 278 15.4 101860 77
2007-07-30 07:40 51°20.049 3°0.353 6.7 248 15.4 101860 77
2007-07-30 07:41 51°20.109 3°0.631 7.5 285 15.4 101870 78
2007-07-30 07:42 51°20.168 3°0.917 4.9 283 15.4 101860 77
2007-07-30 07:43 51°20.228 3°1.192 6 278 15.5 101870 76
2007-07-30 07:44 51°20.29 3°1.476 5.7 279 15.5 101890 75
2007-07-30 07:45 51°20.349 3°1.75 6.3 284 15.6 101860 76
2007-07-30 07:46 51°20.414 3°2.036 6.9 24 15.7 101870 75
2007-07-30 07:47 51°20.474 3°2.32 5.9 249 15.7 101870 76
2007-07-30 07:48 51°20.534 3°2.598 6.1 284 15.7 101870 76
2007-07-30 07:49 51°20.594 3°2.88 7.7 25 15.7 101880 75
2007-07-30 07:50 51°20.655 3°3.157 4.7 279 15.7 101880 75
2007-07-30 07:51 51°20.718 3°3.44 8.6 280 15.7 101880 75
2007-07-30 07:52 51°20.771 3°3.718 7.3 277 15.7 101880 74
2007-07-30 07:53 51°20.816 3°4.012 9.6 284 15.7 101870 75
2007-07-30 07:54 51°20.864 3°4.295 7.6 254 15.7 101870 75
2007-07-30 07:55 51°20.908 3°4.59 5.1 252 15.6 101870 74
2007-07-30 07:56 51°20.951 3°4.875 6 250 15.5 101880 74
2007-07-30 07:57 51°20.996 3°5.167 9.8 252 15.6 101880 75
2007-07-30 07:58 51°21.036 3°5.457 6.2 257 15.6 101870 75
2007-07-30 07:59 51°21.079 3°5.748 4.7 20 15.6 101880 74
2007-07-30 08:00 51°21.13 3°6.032 6.6 252 15.7 101880 75
2007-07-30 08:01 51°21.182 3°6.319 6.3 252 15.8 101870 75
2007-07-30 08:02 51°21.223 3°6.617 6.8 256 15.8 101860 75
2007-07-30 08:03 51°21.249 3°6.911 5.6 253 15.8 101890 75
2007-07-30 08:04 51°21.308 3°7.2 7.6 253 15.7 101870 73
2007-07-30 08:05 51°21.378 3°7.471 4.6 248 15.6 101880 73
2007-07-30 08:06 51°21.406 3°7.765 6.4 253 15.7 101870 75
2007-07-30 08:07 51°21.485 3°8.038 6.4 250 15.7 101860 74
2007-07-30 08:08 51°21.56 3°8.313 7.4 249 15.6 101880 74
2007-07-30 08:09 51°21.637 3°8.59 8.5 22 15.6 101870 76
2007-07-30 08:10 51°21.713 3°8.858 8.1 248 15.6 101850 76
2007-07-30 08:11 51°21.801 3°9.134 6.1 247 15.6 101870 75
2007-07-30 08:12 51°21.887 3°9.403 7.4 250 15.5 101870 74
2007-07-30 08:13 51°21.975 3°9.678 7.9 244 15.6 101860 75
2007-07-30 08:14 51°22.062 3°9.963 9.3 23 15.5 101860 74
2007-07-30 08:15 51°22.143 3°10.249 5.5 245 15.6 101860 75
2007-07-30 08:16 51°22.228 3°10.536 7.1 250 15.6 101870 75
2007-07-30 08:17 51°22.317 3°10.829 6.5 245 15.7 101860 75
2007-07-30 08:18 51°22.403 3°11.122 9.3 253 15.6 101870 75
2007-07-30 08:19 51°22.492 3°11.409 9 252 15.7 101860 75
2007-07-30 08:20 51°22.581 3°11.695 10 25 15.7 101870 75
2007-07-30 08:21 51°22.665 3°11.975 9.8 20 15.6 101870 74
2007-07-30 08:22 51°22.746 3°12.26 10 23 15.5 101870 74
2007-07-30 08:23 51°22.827 3°12.534 9.4 249 15.5 101860 72
2007-07-30 08:24 51°22.909 3°12.818 8.1 21 15.5 101870 73
2007-07-30 08:25 51°22.992 3°13.097 7 248 15.6 101860 73
2007-07-30 08:26 51°23.072 3°13.369 4.9 249 15.6 101870 73
2007-07-30 08:27 51°23.151 3°13.646 9.4 22 15.7 101860 74
2007-07-30 08:28 51°23.231 3°13.926 5.7 28 15.6 101870 72
2007-07-30 08:29 51°23.373 3°14.135 9.7 27 15.6 101860 72
2007-07-30 08:30 51°23.548 3°14.254 13.7 26 15.6 101850 73
2007-07-30 08:31 51°23.745 3°14.25 11.6 27 15.4 101830 72
2007-07-30 08:32 51°23.943 3°14.251 13.1 25 15.3 101830 73
2007-07-30 08:33 51°24.138 3°14.265 12.6 27 15.2 101840 74
2007-07-30 08:34 51°24.346 3°14.272 12.3 281 15.2 101840 74
2007-07-30 08:35 51°24.551 3°14.273 12.7 24 15.1 101840 74
2007-07-30 08:36 51°24.758 3°14.265 13 23 15.1 101840 73
2007-07-30 08:37 51°24.957 3°14.222 13.1 318 15 101830 72
2007-07-30 08:38 51°25.112 3°14.029 13.6 329 15.2 101840 75
2007-07-30 08:39 51°25.228 3°13.779 14.3 286 15.1 101840 74
2007-07-30 08:40 51°25.262 3°13.474 13.9 344 15.1 101840 76
2007-07-30 08:41 51°25.236 3°13.139 13.9 280 15.1 101820 75
2007-07-30 08:42 51°25.221 3°12.81 14.5 341 15.1 101820 76
2007-07-30 08:43 51°25.202 3°12.482 13.2 344 15.1 101820 76
2007-07-30 08:44 51°25.184 3°12.158 14.1 343 15.1 101830 77
2007-07-30 08:45 51°25.16 3°11.822 14.9 340 15.1 101810 79
2007-07-30 08:46 51°25.131 3°11.497 13.9 341 15 101830 76
2007-07-30 08:47 51°25.097 3°11.168 11.8 342 15 101840 75
2007-07-30 08:48 51°25.057 3°10.832 14.3 283 15.1 101840 79
2007-07-30 08:49 51°25.001 3°10.508 13.2 343 15 101830 76
2007-07-30 08:50 51°24.926 3°10.191 13.1 343 14.9 101820 76
2007-07-30 08:51 51°24.859 3°9.876 13.1 342 14.9 101820 76
2007-07-30 08:52 51°24.795 3°9.546 14.1 343 14.9 101840 76
2007-07-30 08:53 51°24.741 3°9.223 14.1 339 15 101830 77
2007-07-30 08:54 51°24.689 3°8.892 15.8 340 15 101830 76
2007-07-30 08:55 51°24.657 3°8.553 13.1 338 15 101830 77
2007-07-30 08:56 51°24.634 3°8.217 14.4 339 15 101850 77
2007-07-30 08:57 51°24.638 3°7.888 14 338 15 101840 78
2007-07-30 08:58 51°24.691 3°7.58 14.7 329 14.9 101850 77
2007-07-30 08:59 51°24.823 3°7.346 13.9 322 14.9 101850 76
2007-07-30 09:00 51°24.954 3°7.118 11.9 325 15 101870 77
2007-07-30 09:01 51°25.089 3°6.911 15.3 324 14.9 101870 77
2007-07-30 09:02 51°25.251 3°6.756 12.9 22 14.9 101870 76
2007-07-30 09:03 51°25.429 3°6.776 13 27 15 101850 77
2007-07-30 09:04 51°25.58 3°6.932 12.8 22 14.9 101860 77
2007-07-30 09:05 51°25.72 3°7.13 10.2 29 14.9 101880 76
2007-07-30 09:06 51°25.851 3°7.356 10 23 15 101880 76
2007-07-30 09:07 51°25.978 3°7.575 11.9 21 15.1 101870 76
2007-07-30 09:08 51°26.101 3°7.792 8.8 26 15.2 101880 76
2007-07-30 09:09 51°26.227 3°8.005 12.4 20 15.1 101880 76
2007-07-30 09:10 51°26.352 3°8.219 8.8 26 15.2 101860 75
2007-07-30 09:11 51°26.479 3°8.429 9.6 27 15.2 101880 74
2007-07-30 09:12 51°26.609 3°8.64 9.1 26 15.3 101870 74
2007-07-30 09:13 51°26.739 3°8.861 7.8 20 15.3 101880 72
2007-07-30 09:14 51°26.864 3°9.083 11.4 26 15.3 101860 74
2007-07-30 09:15 51°26.988 3°9.306 9.8 27 15.2 101890 73
2007-07-30 09:16 51°27.114 3°9.528 9.2 23 15.2 101860 73
2007-07-30 09:17 51°27.24 3°9.755 9.6 26 15.3 101880 74
2007-07-30 09:18 51°27.365 3°9.981 7.9 20 15.3 101890 73
2007-07-30 09:19 51°27.495 3°10.215 11 23 15.3 101870 74
2007-07-30 09:20 51°27.623 3°10.442 10.9 23 15.2 101880 71
2007-07-30 09:21 51°27.743 3°10.685 7.9 27 15.3 101870 73
2007-07-30 09:22 51°27.857 3°10.937 10.8 244 15.3 101870 73
2007-07-30 09:23 51°27.969 3°11.188 7.9 27 15.3 101880 72
2007-07-30 09:24 51°28.084 3°11.437 8.1 24 15.3 101870 72
2007-07-30 09:25 51°28.195 3°11.687 9.6 23 15.2 101890 73
2007-07-30 09:26 51°28.311 3°11.942 7.7 244 15.2 101870 72
2007-07-30 09:27 51°28.435 3°12.18 8.6 23 15.2 101880 72
2007-07-30 09:28 51°28.595 3°12.305 15.2 24 15.2 101860 73
2007-07-30 09:29 51°28.764 3°12.222 12.5 320 15.2 101870 73
2007-07-30 09:30 51°28.918 3°12.058 12.8 324 15.1 101850 71
2007-07-30 09:31 51°29.053 3°11.849 14 324 15.3 101870 75
2007-07-30 09:32 51°29.183 3°11.641 15.2 327 15.1 101860 74
2007-07-30 09:33 51°29.311 3°11.406 12.7 326 15.1 101860 74
2007-07-30 09:34 51°29.434 3°11.175 14.2 327 15.1 101860 76
2007-07-30 09:35 51°29.561 3°10.942 11.9 326 15 101850 74
2007-07-30 09:36 51°29.692 3°10.705 13 323 15 101870 74
2007-07-30 09:37 51°29.822 3°10.469 14.7 327 15 101870 72
2007-07-30 09:38 51°29.954 3°10.233 13.7 326 15 101870 73
2007-07-30 09:39 51°30.084 3°10 12.6 320 15.1 101860 76
2007-07-30 09:40 51°30.213 3°9.766 14.1 324 15 101860 74
2007-07-30 09:41 51°30.34 3°9.532 14.2 326 15 101860 75
2007-07-30 09:42 51°30.472 3°9.291 12.9 327 15.1 101860 76
2007-07-30 09:43 51°30.6 3°9.051 13.7 323 15.1 101860 76
2007-07-30 09:44 51°30.732 3°8.81 13.7 328 15.1 101860 76
2007-07-30 09:45 51°30.864 3°8.566 14.3 322 15.1 101860 75
2007-07-30 09:46 51°30.997 3°8.319 14.8 327 15.1 101870 77
2007-07-30 09:47 51°31.125 3°8.072 14.6 320 15 101880 76
2007-07-30 09:48 51°31.258 3°7.826 11.6 325 15 101870 76
2007-07-30 09:49 51°31.388 3°7.578 13.3 325 15.1 101870 75
2007-07-30 09:50 51°31.518 3°7.336 12.4 322 15.1 101880 75
2007-07-30 09:51 51°31.653 3°7.086 15.1 324 15 101880 74
2007-07-30 09:52 51°31.787 3°6.838 15.3 326 15.2 101890 77
2007-07-30 09:53 51°31.918 3°6.595 13.4 323 15.1 101870 75
2007-07-30 09:54 51°32.055 3°6.345 15.3 325 15 101860 74
2007-07-30 09:55 51°32.192 3°6.097 15.4 323 15 101870 73
2007-07-30 09:56 51°32.334 3°5.856 12.1 325 15 101870 74
2007-07-30 09:57 51°32.473 3°5.623 15.6 327 15 101880 73
2007-07-30 09:58 51°32.613 3°5.395 14.1 326 15 101880 73
2007-07-30 09:59 51°32.751 3°5.161 12.4 325 15 101880 74
2007-07-30 10:00 51°32.887 3°4.932 15.5 326 15 101860 76
2007-07-30 10:01 51°33.014 3°4.692 13.2 325 15 101860 77
2007-07-30 10:02 51°33.14 3°4.454 14.4 328 14.9 101880 75
2007-07-30 10:03 51°33.266 3°4.212 15.7 328 14.9 101880 74
2007-07-30 10:04 51°33.39 3°3.978 12.8 330 14.9 101860 75
2007-07-30 10:05 51°33.519 3°3.74 14.3 324 14.9 101880 75
2007-07-30 10:06 51°33.644 3°3.501 14.9 327 14.9 101880 75
2007-07-30 10:07 51°33.771 3°3.258 13.5 328 15 101870 76
2007-07-30 10:08 51°33.897 3°3.014 14.4 323 15 101860 76
2007-07-30 10:09 51°34.022 3°2.769 15.1 328 15.1 101860 78
2007-07-30 10:10 51°34.148 3°2.524 16.1 327 15 101870 77
2007-07-30 10:11 51°34.274 3°2.283 15.4 325 14.9 101880 73
2007-07-30 10:12 51°34.401 3°2.044 12.9 328 14.9 101840 74
2007-07-30 10:13 51°34.525 3°1.804 15 330 14.9 101880 75
2007-07-30 10:14 51°34.649 3°1.566 13.2 330 14.9 101880 75
2007-07-30 10:15 51°34.774 3°1.326 15.6 327 14.9 101860 76
2007-07-30 10:16 51°34.898 3°1.083 14.6 326 14.9 101880 76
2007-07-30 10:17 51°35.022 3°0.843 15.5 328 14.9 101880 73
2007-07-30 10:18 51°35.147 3°0.599 13.7 328 15 101890 74
2007-07-30 10:19 51°35.27 3°0.355 14.4 325 15 101880 75
2007-07-30 10:20 51°35.388 3°0.098 13.5 333 15 101870 75
2007-07-30 10:21 51°35.408 2°59.761 15.5 341 15 101880 76
2007-07-30 10:22 51°35.375 2°59.412 13.3 344 15 101860 75
2007-07-30 10:23 51°35.306 2°59.072 12.3 346 14.9 101870 75
2007-07-30 10:24 51°35.196 2°58.754 12 350 14.8 101880 73
2007-07-30 10:25 51°35.085 2°58.436 13.6 350 14.7 101880 74
2007-07-30 10:26 51°34.961 2°58.132 11.9 351 14.7 101890 73
2007-07-30 10:27 51°34.839 2°57.826 12.8 350 14.8 101880 75
2007-07-30 10:28 51°34.719 2°57.522 12.9 350 14.8 101900 78
2007-07-30 10:29 51°34.6 2°57.218 12.4 348 14.7 101880 76
2007-07-30 10:30 51°34.481 2°56.909 13 350 14.7 101900 75
2007-07-30 10:31 51°34.362 2°56.599 13.8 349 14.7 101880 75
2007-07-30 10:32 51°34.247 2°56.289 11.5 349 14.6 101890 76
2007-07-30 10:33 51°34.13 2°55.984 13.5 346 14.6 101900 76
2007-07-30 10:34 51°34.014 2°55.676 12.6 350 14.7 101900 76
2007-07-30 10:35 51°33.9 2°55.367 12.8 355 14.7 101890 75
2007-07-30 10:36 51°33.785 2°55.059 11.6 352 14.7 101910 75
2007-07-30 10:37 51°33.672 2°54.748 13.7 351 14.7 101900 76
2007-07-30 10:38 51°33.557 2°54.44 13.5 353 14.7 101890 76
2007-07-30 10:39 51°33.443 2°54.13 12.6 350 14.6 101890 72
2007-07-30 10:40 51°33.328 2°53.823 13 350 14.8 101900 76
2007-07-30 10:41 51°33.217 2°53.518 13.3 353 14.8 101900 78
2007-07-30 10:42 51°33.106 2°53.213 12.9 351 14.7 101910 76
2007-07-30 10:43 51°32.994 2°52.908 12.2 348 14.7 101900 75
2007-07-30 10:44 51°32.884 2°52.601 12.2 353 14.7 101910 75
2007-07-30 10:45 51°32.774 2°52.296 11.9 353 14.7 101910 75
2007-07-30 10:46 51°32.663 2°51.993 11.5 348 14.7 101900 76
2007-07-30 10:47 51°32.553 2°51.686 12.2 350 14.7 101920 76
2007-07-30 10:48 51°32.443 2°51.383 13.5 352 14.6 101910 74
2007-07-30 10:49 51°32.333 2°51.078 13.3 346 14.8 101910 76
2007-07-30 10:50 51°32.222 2°50.777 12.6 355 14.7 101930 75
2007-07-30 10:51 51°32.11 2°50.476 11.9 350 14.6 101920 74
2007-07-30 10:52 51°31.998 2°50.176 11.2 343 14.7 101920 75
2007-07-30 10:53 51°31.89 2°49.874 12.4 353 14.6 101920 75
2007-07-30 10:54 51°31.781 2°49.572 12.5 277 14.7 101910 76
2007-07-30 10:55 51°31.676 2°49.275 13 281 14.6 101920 74
2007-07-30 10:56 51°31.566 2°48.968 10.6 278 14.6 101900 73
2007-07-30 10:57 51°31.458 2°48.668 12.3 348 14.6 101920 73
2007-07-30 10:58 51°31.35 2°48.37 12.2 352 14.6 101930 73
2007-07-30 10:59 51°31.242 2°48.071 10.9 279 14.6 101930 75
2007-07-30 11:00 51°31.092 2°47.837 10.6 1 14.7 101920 78
2007-07-30 11:01 51°30.886 2°47.85 5.5 9 14.7 101940 76
2007-07-30 11:02 51°30.675 2°47.96 6 9 14.6 101940 74
2007-07-30 11:03 51°30.478 2°48.117 3 21 14.7 101970 74
2007-07-30 11:04 51°30.29 2°48.317 2.2 18 14.7 101960 74
2007-07-30 11:05 51°30.165 2°48.594 3.5 285 14.9 101960 73
2007-07-30 11:06 51°30.087 2°48.924 3.8 277 15 101970 73
2007-07-30 11:07 51°30.049 2°49.258 4.7 279 15.3 101950 72
2007-07-30 11:08 51°30.118 2°49.574 7.4 281 15.4 101950 71
2007-07-30 11:09 51°30.224 2°49.862 8.3 279 15.4 101940 69
2007-07-30 11:10 51°30.325 2°50.152 5.6 276 15.4 101950 70
2007-07-30 11:11 51°30.425 2°50.458 7.9 285 15.5 101950 72
2007-07-30 11:12 51°30.523 2°50.761 5.5 278 15.4 101940 71
2007-07-30 11:13 51°30.618 2°51.067 9.5 279 15.4 101960 71
2007-07-30 11:14 51°30.712 2°51.374 8.3 284 15.3 101950 72
2007-07-30 11:15 51°30.803 2°51.684 7.3 284 15.2 101960 72
2007-07-30 11:16 51°30.894 2°51.994 10.1 281 15.2 101960 72
2007-07-30 11:17 51°30.983 2°52.298 8.3 280 15.1 101940 72
2007-07-30 11:18 51°31.079 2°52.606 6.2 277 15.1 101960 71
2007-07-30 11:19 51°31.181 2°52.905 7.9 282 15.1 101960 71
2007-07-30 11:20 51°31.283 2°53.205 9.2 280 15.2 101950 71
2007-07-30 11:21 51°31.385 2°53.506 9.3 281 15.2 101950 72
2007-07-30 11:22 51°31.487 2°53.807 9.3 284 15.3 101950 72
2007-07-30 11:23 51°31.589 2°54.104 8.7 280 15.1 101950 70
2007-07-30 11:24 51°31.693 2°54.413 9.5 284 15 101950 68
2007-07-30 11:25 51°31.798 2°54.716 8.2 282 15.1 101950 69
2007-07-30 11:26 51°31.896 2°55.017 6.2 285 15.1 101960 69
2007-07-30 11:27 51°31.998 2°55.319 9.2 282 15.2 101980 70
2007-07-30 11:28 51°32.076 2°55.638 7.3 280 15.2 101970 70
2007-07-30 11:29 51°32.119 2°55.981 6.8 285 15.3 101950 70
2007-07-30 11:30 51°32.088 2°56.33 3.9 279 15.3 101970 70
2007-07-30 11:31 51°32.011 2°56.666 1.7 281 15.4 101970 69
2007-07-30 11:32 51°31.935 2°57.007 0.9 280 15.4 101980 68
2007-07-30 11:33 51°31.807 2°57.302 0.9 20 15.5 102000 68
2007-07-30 11:34 51°31.677 2°57.601 1.5 277 15.6 101990 68
2007-07-30 11:35 51°31.562 2°57.898 1.4 277 15.9 101960 68
2007-07-30 11:36 51°31.444 2°58.211 1.1 282 16 101980 67
2007-07-30 11:37 51°31.321 2°58.518 0.9 278 16.1 101980 66
2007-07-30 11:38 51°31.188 2°58.808 2.1 286 16.2 101970 65
2007-07-30 11:39 51°31.053 2°59.097 0.8 278 16.3 101970 65
2007-07-30 11:40 51°30.922 2°59.391 1.7 280 16.4 101990 64
2007-07-30 11:41 51°30.786 2°59.682 1 287 16.5 101990 64
2007-07-30 11:42 51°30.66 2°59.978 0.7 282 16.5 101980 63
2007-07-30 11:43 51°30.527 3°0.274 1.1 13 16.6 101980 63
2007-07-30 11:44 51°30.398 3°0.568 0.8 277 16.7 101980 63
2007-07-30 11:45 51°30.272 3°0.862 1.5 281 16.8 101990 63
2007-07-30 11:46 51°30.144 3°1.156 1.5 284 16.9 101980 62
2007-07-30 11:47 51°30.016 3°1.456 1.4 279 16.9 101980 61
2007-07-30 11:48 51°29.889 3°1.748 0.9 83 17 101990 63
2007-07-30 11:49 51°29.762 3°2.039 0.7 352 17 101980 62
2007-07-30 11:50 51°29.634 3°2.329 0.6 282 17.1 101970 61
2007-07-30 11:51 51°29.508 3°2.623 0.7 287 17.1 101990 59
2007-07-30 11:52 51°29.381 3°2.909 0.8 277 17.2 101990 58
2007-07-30 11:53 51°29.252 3°3.198 0.6 286 17.3 101970 59
2007-07-30 11:54 51°29.124 3°3.484 2.1 12 17.5 101980 59
2007-07-30 11:55 51°28.994 3°3.773 2 21 17.4 101990 61
2007-07-30 11:56 51°28.818 3°3.949 5.6 8 16.9 101980 58
2007-07-30 11:57 51°28.606 3°3.982 5.5 6 16.3 101990 61
2007-07-30 11:58 51°28.393 3°4.001 5.7 7 15.8 101980 63
2007-07-30 11:59 51°28.184 3°4.011 5.9 7 15.6 101970 66
2007-07-30 12:00 51°27.971 3°4.021 6.3 6 15.4 101970 66
2007-07-30 12:01 51°27.757 3°4.031 4.5 4 15.3 101970 70
2007-07-30 12:02 51°27.542 3°4.042 5.6 3 15.2 101970 68
2007-07-30 12:03 51°27.33 3°4.051 4.4 358 15.1 101980 70
2007-07-30 12:04 51°27.12 3°4.068 4.6 6 15.1 101980 72
2007-07-30 12:05 51°26.907 3°4.08 6 6 15.2 101970 71
2007-07-30 12:06 51°26.698 3°4.096 6.1 4 15.1 101980 71
2007-07-30 12:07 51°26.487 3°4.109 7.7 6 15 101970 69
2007-07-30 12:08 51°26.28 3°4.125 5.6 6 15 101980 68
2007-07-30 12:09 51°26.073 3°4.144 6.4 5 15.1 101980 70
2007-07-30 12:10 51°25.864 3°4.16 4.6 6 15.1 101970 67
2007-07-30 12:11 51°25.66 3°4.174 4.5 1 15.1 101980 68
2007-07-30 12:12 51°25.451 3°4.192 5.2 13 15.1 101970 69
2007-07-30 12:13 51°25.246 3°4.215 7.1 9 15.2 101990 68
2007-07-30 12:14 51°25.039 3°4.232 5.4 12 15.2 101980 70
2007-07-30 12:15 51°24.831 3°4.226 6.1 4 15.2 101970 68
2007-07-30 12:16 51°24.621 3°4.226 4 9 15.2 101980 69
2007-07-30 12:17 51°24.41 3°4.222 5.1 5 15.2 101970 68
2007-07-30 12:18 51°24.198 3°4.221 4.2 1 15.1 101980 67
2007-07-30 12:19 51°23.987 3°4.224 5.9 1 15.1 101980 67
2007-07-30 12:20 51°23.779 3°4.225 6.6 360 15.1 101970 70
2007-07-30 12:21 51°23.572 3°4.221 7 -999 15.1 101970 69
2007-07-30 12:22 51°23.405 3°4.084 9.3 279 15 101970 69
2007-07-30 12:23 51°23.254 3°3.914 8.2 358 15 101970 68
2007-07-30 12:24 51°23.112 3°3.732 9.3 279 15.1 101970 69
2007-07-30 12:25 51°22.99 3°3.521 10.5 354 15 101960 66
2007-07-30 12:26 51°22.871 3°3.31 8.2 357 15 101970 66
2007-07-30 12:27 51°22.75 3°3.1 9.4 355 15 101970 67
2007-07-30 12:28 51°22.63 3°2.884 9.1 355 15.1 101950 68
2007-07-30 12:29 51°22.508 3°2.662 9.4 351 15.1 101970 65
2007-07-30 12:30 51°22.389 3°2.439 11.2 353 15.1 101980 67
2007-07-30 12:31 51°22.284 3°2.2 11.4 351 15.1 101960 65
2007-07-30 12:32 51°22.178 3°1.963 10.8 352 15.1 101970 68
2007-07-30 12:33 51°22.071 3°1.724 8.9 354 15.1 101960 67
2007-07-30 12:34 51°21.963 3°1.489 10.9 352 15 101960 66
2007-07-30 12:35 51°21.855 3°1.253 9.9 354 15 101970 67
2007-07-30 12:36 51°21.75 3°1.016 9.8 349 15.1 101970 67
2007-07-30 12:37 51°21.647 3°0.779 11 354 15 101970 63
2007-07-30 12:38 51°21.542 3°0.543 8.6 277 15.1 101970 64
2007-07-30 12:39 51°21.437 3°0.306 10 356 15 101970 65
2007-07-30 12:40 51°21.333 3°0.067 9 354 15.1 101980 68
2007-07-30 12:41 51°21.228 2°59.832 11.3 353 15.1 101970 68
2007-07-30 12:42 51°21.124 2°59.592 10 357 15.1 101970 68
2007-07-30 12:43 51°21.021 2°59.354 8.7 354 15.1 101970 67
2007-07-30 12:44 51°20.916 2°59.115 9.8 278 15 101990 69
2007-07-30 12:45 51°20.813 2°58.877 11.1 353 15 101970 70
2007-07-30 12:46 51°20.712 2°58.637 9.2 346 15.1 101990 72
2007-07-30 12:47 51°20.611 2°58.398 10.4 353 15 101980 69
2007-07-30 12:48 51°20.515 2°58.157 9.2 281 15.1 101980 69
2007-07-30 12:49 51°20.417 2°57.915 9.9 278 15 101990 70
2007-07-30 12:50 51°20.317 2°57.674 10.5 282 15 101980 70
2007-07-30 12:51 51°20.218 2°57.429 10.2 278 15 101990 72
2007-07-30 12:52 51°20.116 2°57.185 11.1 353 15 101980 70
2007-07-30 12:53 51°20.018 2°56.937 10.3 280 15 101980 68
2007-07-30 12:54 51°19.92 2°56.688 9.1 350 15 101980 69
2007-07-30 12:55 51°19.819 2°56.439 11 353 15 101990 69
2007-07-30 12:56 51°19.72 2°56.188 9.7 355 15 101990 67
2007-07-30 12:57 51°19.623 2°55.935 9.4 348 15.1 101980 69
2007-07-30 12:58 51°19.522 2°55.684 10.8 353 15 102000 70
2007-07-30 12:59 51°19.423 2°55.432 10.3 348 15 101990 69
2007-07-30 13:00 51°19.323 2°55.182 11 351 15 102000 67
2007-07-30 13:01 51°19.223 2°54.929 10.2 351 15 102000 68
2007-07-30 13:02 51°19.125 2°54.673 9.4 354 15 102010 68
2007-07-30 13:03 51°19.024 2°54.42 8.6 348 15.1 102000 70
2007-07-30 13:04 51°18.926 2°54.165 11 355 15 101990 69
2007-07-30 13:05 51°18.827 2°53.91 9.3 353 15 101990 68
2007-07-30 13:06 51°18.727 2°53.658 9.8 280 15 102000 70
2007-07-30 13:07 51°18.627 2°53.403 10.2 353 15 101990 69
2007-07-30 13:08 51°18.527 2°53.147 8.2 350 15 102000 67
2007-07-30 13:09 51°18.426 2°52.893 9 351 15 102000 68
2007-07-30 13:10 51°18.297 2°52.677 9.3 354 15 102000 70
2007-07-30 13:11 51°18.153 2°52.49 5.5 2 15 102010 66
2007-07-30 13:12 51°17.969 2°52.421 5.7 359 15 102020 66
2007-07-30 13:13 51°17.778 2°52.378 5.3 355 15.1 102010 64
2007-07-30 13:14 51°17.589 2°52.332 6.5 359 15.1 102020 66
2007-07-30 13:15 51°17.39 2°52.329 4.2 357 15.2 102010 68
2007-07-30 13:16 51°17.196 2°52.392 3 355 15.1 102020 63
2007-07-30 13:17 51°17.039 2°52.48 2.7 33 15.1 102030 61
2007-07-30 13:18 51°16.966 2°52.484 4 6 15.3 102020 63
2007-07-30 13:19 51°16.955 2°52.41 7.9 279 15.4 102010 67
2007-07-30 13:20 51°17.04 2°52.376 7.2 278 15.3 102010 60
2007-07-30 13:21 51°17.124 2°52.375 6.4 278 15.5 102010 61
2007-07-30 13:22 51°17.166 2°52.38 5.4 284 15.6 102020 58
2007-07-30 13:23 51°17.199 2°52.385 5.3 277 15.6 102020 59
2007-07-30 13:24 51°17.242 2°52.377 5.5 277 15.6 102020 61
2007-07-30 13:25 51°17.28 2°52.379 5.6 316 15.7 102020 62
2007-07-30 13:26 51°17.32 2°52.418 5.7 278 15.8 102020 63
2007-07-30 13:27 51°17.344 2°52.502 2.6 76 15.8 102030 60
2007-07-30 13:28 51°17.274 2°52.605 3.3 10 15.9 102030 61
2007-07-30 13:29 51°17.101 2°52.72 3.9 355 15.8 102020 63
2007-07-30 13:30 51°16.914 2°52.841 4.7 348 15.7 102030 62
2007-07-30 13:31 51°16.727 2°52.969 3.9 284 15.6 102020 61
2007-07-30 13:32 51°16.541 2°53.1 4.2 281 15.5 102030 61
2007-07-30 13:33 51°16.355 2°53.229 3.2 284 15.5 102020 61
2007-07-30 13:34 51°16.166 2°53.355 3.4 347 15.4 102030 62
2007-07-30 13:35 51°15.975 2°53.48 4 351 15.4 102030 59
2007-07-30 13:36 51°15.784 2°53.601 4.7 353 15.4 102030 58
2007-07-30 13:37 51°15.593 2°53.728 3.7 279 15.4 102020 57
2007-07-30 13:38 51°15.402 2°53.863 3.6 356 15.4 102020 57
2007-07-30 13:39 51°15.215 2°53.996 2.7 357 15.4 102030 60
2007-07-30 13:40 51°15.03 2°54.134 1.9 353 15.4 102030 57
2007-07-30 13:41 51°14.858 2°54.32 2.8 281 15.5 102030 60
2007-07-30 13:42 51°14.695 2°54.535 2.1 278 15.7 102040 59
2007-07-30 13:43 51°14.537 2°54.763 2.7 278 15.7 102040 58
2007-07-30 13:44 51°14.4 2°55.01 3.1 282 15.8 102040 58
2007-07-30 13:45 51°14.273 2°55.248 1.4 352 15.8 102040 54
2007-07-30 13:46 51°14.169 2°55.376 1.2 29 15.8 102030 54
2007-07-30 13:47 51°14.072 2°55.449 2 24 15.9 102040 57
2007-07-30 13:48 51°13.962 2°55.531 1.6 17 16 102040 56
2007-07-30 13:49 51°13.844 2°55.619 0.7 24 16.1 102040 54
2007-07-30 13:50 51°13.749 2°55.72 1 280 16.3 102030 56
2007-07-30 13:51 51°13.687 2°55.841 1.8 79 16.5 102030 57
2007-07-30 13:52 51°13.634 2°55.959 0.8 80 16.6 102030 57
2007-07-30 13:53 51°13.605 2°56.059 3.6 83 16.9 102030 55
2007-07-30 13:54 51°13.596 2°56.091 4.9 22 16.6 102030 53
2007-07-30 13:55 51°13.596 2°56.093 3.9 76 16.3 102030 54